Kalaeloa, HI

11:01 PM HST on November 20, 2017 (GMT -1000)
Kalaeloa (John Rodgers Field)

Weather History for PHJR - December, 2011

Change the Weather History Date:

Wednesday, December 7, 2011

  Actual Average (PHHI) Record (PHHI)
Temperature  
Mean Temperature 75 °F -  
Max Temperature 82 °F 74 °F 80 °F (2013)
Min Temperature 68 °F 64 °F 58 °F (2010)
Cooling Degree Days 10    
Growing Degree Days 25 (Base 50)    
Moisture  
Dew Point 61 °F    
Average Humidity 67    
Maximum Humidity 81    
Minimum Humidity 49    
Precipitation  
Precipitation 0.00 in - - ()
Sea Level Pressure  
Sea Level Pressure 30.04 in    
Wind  
Wind Speed 4 mph (NE)    
Max Wind Speed 9 mph    
Max Gust Speed 20 mph    
Visibility 10 miles    
Events      
Averages and records for this station are not official NWS values.
T = Trace of Precipitation, MM = Missing Value Source: NWS Daily Summary

Daily Weather History Graph

Daily Weather History Graph

Search for Another Location

Airport or City:

Trip Planner

Search our weather history database for the weather conditions in past years. The results will help you decide how hot, cold, wet, or windy it might be!

Date:

Astronomy

Dec. 07, 2011 Rise Set
Actual Time 6:57 AM HST 5:50 PM HST
Civil Twilight 6:33 AM HST 6:14 PM HST
Nautical Twilight 6:05 AM HST 6:42 PM HST
Astronomical Twilight 5:38 AM HST 7:09 PM HST
Moon 3:52 PM HST (12/7) 4:31 AM HST (12/7)
Length of Visible Light 11h 41m
Length of Day
10h 53m
Waxing Gibbous, 93% of the Moon is Illuminated
Dec 7
Waxing Gibbous
Dec 10
Full
Dec 17
Last Quarter
Dec 24
New
Dec 31
First Quarter

Hourly Weather History & Observations

Time (HST) Temp. Heat Index Dew Point Humidity Pressure Visibility Wind Dir Wind Speed Gust Speed Precip Events Conditions
12:53 AM 69.1 °F - 63.0 °F 81% 30.03 in 10.0 mi ENE 3.5 mph - N/A   Clear
1:53 AM 68.0 °F - 62.1 °F 81% 30.03 in 10.0 mi Variable 4.6 mph - N/A   Clear
2:53 AM 69.1 °F - 62.1 °F 78% 30.01 in 10.0 mi Variable 3.5 mph - N/A   Clear
3:53 AM 69.1 °F - 62.1 °F 78% 30.00 in 10.0 mi Variable 3.5 mph - N/A   Clear
4:53 AM 69.1 °F - 62.1 °F 78% 29.99 in 10.0 mi Calm Calm - N/A   Clear
5:53 AM 68.0 °F - 62.1 °F 81% 30.01 in 10.0 mi Calm Calm - N/A   Clear
6:53 AM 68.0 °F - 61.0 °F 78% 30.03 in 10.0 mi NNE 4.6 mph - N/A   Clear
7:53 AM 71.1 °F - 62.1 °F 73% 30.06 in 10.0 mi Calm Calm - N/A   Clear
8:43 AM 75.2 °F - 62.6 °F 65% 30.04 in 10.0 mi Variable 3.5 mph - N/A   Partly Cloudy
8:53 AM 75.9 °F - 63.0 °F 64% 30.06 in 10.0 mi Variable 3.5 mph - N/A   Partly Cloudy
9:53 AM 79.0 °F - 62.1 °F 56% 30.06 in 10.0 mi Variable 4.6 mph 16.1 mph N/A   Clear
10:53 AM 80.1 °F 81.5 °F 63.0 °F 56% 30.06 in 10.0 mi East 8.1 mph 19.6 mph N/A   Partly Cloudy
11:53 AM 82.9 °F 83.7 °F 62.1 °F 49% 30.04 in 10.0 mi Variable 6.9 mph 18.4 mph N/A   Scattered Clouds
12:53 PM 82.0 °F 82.7 °F 61.0 °F 49% 30.02 in 10.0 mi Variable 6.9 mph - N/A   Scattered Clouds
1:53 PM 81.0 °F 81.7 °F 61.0 °F 50% 29.99 in 10.0 mi ENE 9.2 mph - N/A   Clear
2:53 PM 81.0 °F 81.7 °F 61.0 °F 50% 29.98 in 10.0 mi Variable 4.6 mph 19.6 mph N/A   Partly Cloudy
3:53 PM 77.0 °F - 62.1 °F 60% 29.98 in 10.0 mi Variable 6.9 mph - N/A   Mostly Cloudy
4:53 PM 77.0 °F - 60.1 °F 56% 30.00 in 10.0 mi NE 8.1 mph - N/A   Partly Cloudy
5:53 PM 73.9 °F - 60.1 °F 62% 30.02 in 10.0 mi Variable 5.8 mph - N/A   Clear
6:53 PM 72.0 °F - 61.0 °F 68% 30.05 in 10.0 mi Variable 3.5 mph - N/A   Clear
7:53 PM 71.1 °F - 60.1 °F 68% 30.07 in 10.0 mi Variable 3.5 mph - N/A   Clear
8:53 PM 70.0 °F - 59.0 °F 68% 30.09 in 10.0 mi Variable 4.6 mph - N/A   Clear
9:53 PM 69.1 °F - 59.0 °F 70% 30.11 in 10.0 mi Calm Calm - N/A   Partly Cloudy
10:53 PM 69.1 °F - 60.1 °F 73% 30.10 in 10.0 mi Calm Calm - N/A   Clear
11:53 PM 70.0 °F - 61.0 °F 73% 30.09 in 10.0 mi ENE 5.8 mph - N/A   Partly Cloudy